Regional Weather Roundup
Issued by NWS

Home | Current Version | Previous Version | Graphics & Text | Print | Product List | Glossary On
Versions: 1 2 3 4 5 6 7 8 9 10 11 12 13 14 15 16 17 18 19 20 21 22 23 24 25 26 27 28 29 30 31 32 33 34 35 36 37 38 39 40 41 42 43 44 45 46 47 48 49 50
000
ASUS43 KLOT 212309
RWRIL

ILLINOIS REGIONAL WEATHER ROUNDUP
NATIONAL WEATHER SERVICE CHICAGO/ROMEOVILLE IL
600 PM CDT THU SEP 21 2017

NOTE: "FAIR" INDICATES FEW OR NO CLOUDS BELOW 12,000 FEET WITH NO
SIGNIFICANT WEATHER AND/OR OBSTRUCTIONS TO VISIBILITY.

* THESE STATIONS ARE NOT UNDER NWS QUALITY CONTROL. THEY ALSO MAY NOT
  REPORT WEATHER SUCH AS PRECIPITATION OR FOG.

ILZ001-002-007-009-015-016-024-220000-
NORTHWEST ILLINOIS

CITY           SKY/WX    TMP DP  RH WIND       PRES   REMARKS
MOLINE         CLOUDY    86  69  56 SE10      29.93F HX  90
STERLING*      CLOUDY    84  68  58 CALM      29.96F HX  87
SAVANNA*       PTSUNNY   85  69  59 SE7       29.94F HX  88
$$

ILZ003-004-008-010-011-017-018-220000-
NORTH CENTRAL ILLINOIS

CITY           SKY/WX    TMP DP  RH WIND       PRES   REMARKS
ROCKFORD       MOCLDY    84  67  56 S7        29.98S HX  86
FREEPORT*      CLOUDY    82  66  58 S7        29.98F HX  84
ROCHELLE*      CLOUDY    83  69  62 S5        29.98F HX  86
DE KALB*       CLOUDY    83  68  59 S7        29.99F HX  86
PERU*          CLOUDY    84  67  56 SE6       29.97F HX  87
$$

ILZ005-006-012>014-019>023-220000-
NORTHEAST ILLINOIS

CITY           SKY/WX    TMP DP  RH WIND       PRES   REMARKS
CHICAGO-OHARE  PTCLDY    90  65  43 S9        29.96F HX  92
CHICAGO-MIDWAY PTCLDY    92  69  47 S13       29.96F HX  97
AURORA         CLOUDY    86  71  60 S3        29.98S HX  91
LANSING*       CLEAR     86  72  62 S7        29.99S HX  92
JOLIET*        CLOUDY    88  73  60 S3        29.97F HX  96
WAUKEGAN       PTCLDY    79  71  76 SE3       29.97F HX  82
DUPAGE AIRPORT PTCLDY    86  69  56 S6        29.97S HX  90
KANKAKEE*      PTCLDY    85  72  63 S5        29.99F HX  91
WHEELING       CLEAR     86  70  58 CALM      29.98F HX  90
MORRIS*        CLOUDY    85  73  68 CALM      29.96S HX  92
ROMEOVILLE*    CLOUDY    86  71  60 S7        29.98S HX  91
NORTHERLY ISL    N/A     78  69  73 SE3         N/A  HX  80
$$

LMZ740>746-220000-
SOUTHERN LAKE MICHIGAN

STATION/POSITION SKY/WX   TEMP    WIND        PRES    VSBY  WAVE
                          AIR SEA DIR/SP/G                  HT/PER
                          (F)     (DEG/KT/KT) (MB)    (MI)  (FT/S)
SOUTHERN BUOY              73 71  110/  2/  2 1015.6          0
WILMETTE HARBOR            74 71  180/  2/  4   N/A           1
HARRISON CRIB              78     100/ 12/ 13   N/A
BURNHAM HARBOR             78                   N/A
CALUMET HARBOR             76     100/  7/ 11 1014.8F
BURNS HARBOR               77      80/ 10/ 11 1015.9S
MICHIGAN CITY              76      40/ 12/ 12   N/A
MICHIGAN CITY 6N           74 72   90/  6/  8   N/A           1
ST. JOSEPH                 75 72   80/  4/  6 1015.4          0
$$

ILZ025>027-034>036-040-047-049-050-058-095>099-220000-
WEST-CENTRAL ILLINOIS

CITY           SKY/WX    TMP DP  RH WIND       PRES   REMARKS
QUINCY         CLOUDY    86  70  58 SE15      29.93F HX  90
GALESBURG*     PTSUNNY   82  71  68 S6        29.97S HX  86
MACOMB*        CLOUDY    83  72  69 SE5       29.98S HX  88
JACKSONVILLE*  CLOUDY    84  69  60 SE6       29.96F HX  88
PITTSFIELD*    CLOUDY    87  72  59 SE10      29.96F HX  93
$$

ILZ028>032-037-038-041>044-048-051>054-059>061-220000-
CENTRAL ILLINOIS

CITY           SKY/WX    TMP DP  RH WIND       PRES   REMARKS
PONTIAC        CLOUDY    90  71  53 S6        29.98F HX  96
BLOOMINGTON    MOCLDY    85  71  63 S7        30.00S HX  90
DECATUR        PTCLDY    89  68  49 SW7       29.98S HX  93
PEORIA         PTCLDY    85  71  63 SW6       29.97R HX  90
LACON*         PTCLDY    85  73  65 SE3       29.95F HAZE    HX  92
LINCOLN*       PTCLDY    88  72  57 SW5       29.97S HX  95
SPRINGFIELD    CLOUDY    88  71  57 S5        29.98S HX  94
TAYLORVILLE    CLOUDY    85  69  58 S3        29.99S HX  89
$$

ILZ033-039-045-046-055>057-062-063-220000-
EAST-CENTRAL ILLINOIS

CITY           SKY/WX    TMP DP  RH WIND       PRES   REMARKS
CHAMPAIGN      PTCLDY    90  67  46 S7        29.99F HX  93
RANTOUL*       MOCLDY    91  71  52 S5        29.99S HX  97
MATTOON        PTCLDY    89  69  51 S3        29.98F HX  93
PARIS*         PTCLDY    91  69  48 S8        30.01S HX  95
$$

ILZ079-100>102-220000-
SOUTHWEST ILLINOIS

CITY           SKY/WX    TMP DP  RH WIND       PRES   REMARKS
ALTON          PTSUNNY   86  72  62 S10       29.97F HX  92
BELLEVILLE     SUNNY     86  66  49 VRB5      29.99F HX  88
CAHOKIA*       PTSUNNY   89  68  49 SE10      29.95F HX  93
SPARTA*        PTSUNNY   88  69  54 SE5       29.99S HX  92
$$

ILZ064>066-069>071-074>076-080>082-084>086-088>090-092>094-220000-
SOUTH-CENTRAL ILLINOIS

CITY           SKY/WX    TMP DP  RH WIND       PRES   REMARKS
CARBONDALE     CLOUDY    85  72  65 SW5       29.98S HX  91
CAIRO*         MOSUNNY   87  72  59 E3        29.98S HX  93
EFFINGHAM*     PTCLDY    91  65  42 SE5       30.00S HX  93
MARION         MOCLDY    88  68  51 S7        29.99F HX  91
MT. VERNON       N/A     85  70  60 CALM      29.99S HX  89
CENTRALIA*     PTCLDY    87  69  54 CALM      29.98S HX  91
SALEM*         CLOUDY    88  66  48 CALM      29.99S HX  90
METROPOLIS*    PTCLDY    90  71  53 SE5       29.99S HX  95
$$

ILZ067-068-072-073-078-083-087-091-220000-
SOUTHEAST ILLINOIS

CITY           SKY/WX    TMP DP  RH WIND       PRES   REMARKS
LAWRENCEVILLE  CLEAR     91  68  46 SW7       29.99F HX  95
FLORA*         CLEAR     89  66  46 S6        29.99S HX  92
FAIRFIELD*     CLEAR     89  66  46 CALM      29.97F HX  91
HARRISBURG*    CLEAR     92  68  45 SE6       29.99S HX  95
ROBINSON*      CLEAR     87  69  54 S3        30.00F HX  91
CARMI*         CLEAR     88  70  55 S5        29.98F HX  92
$$

ABBREVIATIONS USED IN REMARKS
   TC - TEMPERATURE IN CELSIUS
  WCI - WIND CHILL INDEX
   HX - HEAT INDEX
  VSB - VISIBILITY
$$





USA.gov is the U.S. government's official web portal to all federal, state and local government web resources and services.